Tracking 30510 objects as of 22-May-2025
HD Live streaming from Space Station
objects crossing your sky now

STARLINK-1549

Track STARLINK-1549 now!
10-day predictions
STARLINK-1549 is classified as:


NORAD ID: 46074
Int'l Code: 2020-055AZ
Perigee: 553.5 km
Apogee: 555.3 km
Inclination: 53.1 °
Period: 95.6 minutes
Semi major axis: 6925 km
RCS: Unknown
Launch date: August 7, 2020
Source: United States (US)
Launch site: AIR FORCE EASTERN TEST RANGE (AFETR)
Your satellite tracking list
Your tracking list is empty




NASA's NSSDC Master Catalog

Two Line Element Set (TLE):
1 46074U 20055AZ  25141.53620884  .00000341  00000-0  41759-4 0  9990
2 46074  53.0556 328.1470 0001283  96.2645 263.8490 15.06390495265263
Source of the keplerian elements: AFSPC